SCP
0 0 0 0 0 0 0 0 0 0 0 0 0 0 0 0 0 0 0 0 0 0 0 0 0 0 0 0 0 0 0 0 0 0 0 0 0 0 0 0 0 0 0 0 0 0 0
0 0 0 0 0 0 0 0 0 0 0 0 0 0 0 0 0 0 0 0 0 0 0 0 0 0 0 0 0 0 0 0 0 0 0 0 0 0 0 0 0 0 0 0 0 0 0
-0 -0 -0 0 -0 0 -0 -0 -0 -0 -0 -0 -0 -0 -0 -0 0 0 0 0 0 0 0 0 0 0 0 0 0 0 0 0 0 0 0 0 0 0 0 0 0 0 0 0 0 0 0
0 0 0 -0 -0 -0 -0 -0 -0 -0 -0 -0 -0 -0 -0 -0 -0 -0 -0 0 0 0 0 0 0 -0 -0 -0 0 0 0 0 0 0 0 0 0 0 0 0 0 0 0 0 0 0 0
-0 -0 -0 -0 -0 -0 -0 -0 -0 -0 -0 -0 -0 -0 -0 -0 -0 -0 -0 -0 0 -0 -0 -0 0 0 -0 0 0 0 0 0 0 0 0 0 0 0 0 0 0 0 0 0 0 0 0
-0 -0 -0 -0 -0 -0 -0 -0 -0 -0 -0 -0 -0 -0 -0 -0 -0 0 -0 -0 0 0 -0 -0 0 0 0 0 -0 -0 0 0 0 0 0 0 0 0 0 0 0 0 0 0 0 0 0
-0 -0 -0 -0 -0 -0 -0 -0 -0 -0 -0 -0 -0 0 -0 0 0 0 0 0 0 0 0 0 -0 0 0 0 0 0 0 0 0 0 0 0 0 0 0 0 0 0 0 0 0 0 0
-0 -0 -0 -0 -0 -0 -0 -0 -0 -0 -0 0 -0 -0 -0 -0 0 0 0 0 0 -0 0 -0 -0 -0 -0 -0 0 0 0 0 0 0 0 0 0 0 0 0 0 0 0 0 0 0 0
-0 -0 -0 -0 -0 -0 -0 -0 -0 0 0 0 0 0 0 -0 0 0 0 0 0 0 -0 0 0 0 0 0 0 0 0 0 0 0 0 0 0 0 0 0 0 0 0 0 0 0 0
-0 -0 0 -0 -0 -0 -0 -0 -0 -0 0 0 0 0 0 -0 0 0 0 0 0 0 -0 -0 0 0 -0 -0 0 -0 -0 0 0 0 0 0 0 0 0 0 0 0 0 0 0 0 0
-0 -0 0 -0 -0 -0 -0 -0 -0 -0 0 0 0 0 0 0 0 0 0 0 0 0 -0 -0 -0 -0 -0 0 0 0 0 -0 0 0 0 0 0 0 0 0 0 0 0 0 0 0 0
-0 -0 -0 -0 -0 -0 -0 -0 -0 0 0 0 0 0 -0 0 0 0 0 0 0 0 -0 -0 -0 -0 0 -0 0 0 0 0 -0 -0 0 0 0 0 0 0 0 0 0 0 0 0 0
-0 -0 -0 -0 -0 -0 -0 -0 0 0 0 0 0 0 0 0 0 0 0 0 0 0 0 -0 -0 0 -0 0 0 0 -0 0 0 0 0 0 0 0 0 0 0 0 0 0 0 0 0
-0 -0 -0 -0 -0 -0 -0 -0 0 0 0 0 0 0 0 0 0 0 0 0 0 0 0 -0 -0 0 -0 -0 -0 -0 0 0 0 0 0 0 0 0 0 0 0 0 0 0 0 0 0
0 0 -0 -0 0 0 0 0 -0 0 0 0 0 0 0 0 0 0 0 0 0 0 0 -0 0 -0 0 0 0 0 0 0 0 0 0 0 0 0 0 0 0 0 0 0 0 0 0
0 0 0 0 0 0 0 0 0 0 0 0 0 0 0 0 0 0 0 0 0 0 0 0 0 0 -0 -0 0 0 0 0 0 0 -0 0 0 -0 0 0 0 0 0 0 0 0 0
0 0 0 0 0 0 0 0 0 0 0 0 0 0 0 0 0 0 0 0 -0 0 0 0 -0 -0 -0 -0 0 0 -0 -0 0 0 0 0 -0 -0 -0 0 0 0 0 0 0 0 0
0 0 0 0 0 0 0 0 0 0 -0 0 0 0 0 0 0 0 0 0 0 0 -0 -0 0 -0 0 -0 -0 0 0 0 -0 0 0 0 -0 0 0 0 0 0 0 0 0 0 0
0 0 0 0 0 0 0 0 0 0 0 0 0 0 0 0 0 0 0 0 -0 0 -0 0 0 0 -0 -0 0 -0 0 0 -0 -0 0 0 0 -0 0 0 -0 0 0 0 0 0 0
0 0 0 0 0 0 0 0 0 0 0 0 0 0 0 0 0 0 0 0 -0 0 0 -0 0 0 -0 -0 0 0 -0 -0 -0 -0 0 0 -0 -0 0 0 0 0 0 0 0 0 0
0 0 0 0 0 0 0 0 0 0 0 0 0 0 0 0 0 0 0 0 0 0 -0 -0 0 -0 0 -0 0 0 0 0 0 0 -0 0 0 0 0 0 0 0 0 0 0 0 0
0 0 0 0 0 0 0 0 0 0 0 0 0 0 0 0 0 0 0 0 0 -0 -0 0 -0 -0 0 0 -0 -0 -0 -0 -0 -0 -0 -0 0 0 0 0 -0 0 0 0 0 0 0
0 0 0 0 0 0 0 0 0 0 0 0 0 0 0 0 0 0 0 0 0 0 0 0 -0 0 -0 -0 0 0 -0 0 0 -0 -0 0 0 -0 -0 0 0 0 0 0 0 0 0
0 0 0 0 0 0 0 0 0 0 0 0 0 0 0 0 0 0 0 0 0 0 0 0 0 0 0 -0 -0 -0 -0 -0 -0 -0 -0 -0 -0 0 -0 -0 -0 0 0 0 0 0 0
0 0 0 0 0 0 0 0 0 0 0 0 0 0 0 0 0 0 0 0 0 0 0 0 -0 -0 0 0 0 0 0 0 0 -0 -0 -0 -0 0 0 0 0 0 0 0 0 0 0
0 0 0 0 0 0 0 0 0 0 0 0 0 0 0 0 0 0 0 0 0 0 0 0 0 0 0 0 0 0 0 0 0 -0 -0 -0 -0 -0 -0 0 0 0 0 0 0 0 0
0 0 0 0 0 0 0 0 0 0 0 0 0 0 0 0 0 0 0 0 0 0 0 0 0 0 -0 -0 -0 -0 0 0 0 -0 -0 0 0 -0 -0 0 0 0 0 0 0 0 0
0 0 0 0 0 0 0 0 0 0 0 0 0 0 0 0 0 0 0 0 0 0 0 0 0 0 0 0 -0 0 -0 -0 0 0 0 -0 0 -0 -0 0 0 -0 0 0 0 0 0
0 0 0 0 0 0 0 0 0 0 0 0 0 0 0 0 0 0 0 0 0 0 0 0 0 0 0 0 0 0 0 -0 -0 -0 -0 -0 0 0 0 0 -0 -0 0 0 0 0 0
Wind_Speed_500mb
35 35 35 37 38 39 38 39 41 41 40 40 40 40 41 41 41 42 42 43 44 42 40 38 39 41 37 22 55 17 28 23 20 32 53 47 48 39 17 19 47 46 36 55 64 70 76
37 38 38 39 41 41 41 38 38 38 38 39 41 43 45 46 47 47 47 47 45 42 42 43 39 38 33 29 26 27 27 41 26 16 47 50 34 45 25 35 39 31 42 56 58 66 68
35 38 41 41 39 38 36 35 36 37 38 38 39 40 42 43 44 44 45 45 44 43 46 42 38 37 39 60 44 34 38 33 36 38 40 43 39 47 17 24 58 52 43 43 54 49 50
39 41 42 42 41 41 40 37 37 39 41 44 47 51 55 54 53 50 50 48 40 31 36 36 37 23 26 43 20 26 39 43 36 41 43 43 37 34 31 33 42 36 36 44 40 41 58
39 43 47 48 47 45 43 39 39 41 45 51 54 58 60 60 57 58 60 51 35 25 34 33 34 17 25 17 28 16 33 38 38 39 39 39 34 37 29 9 13 27 44 49 47 45 35
41 45 47 49 48 47 45 44 46 48 51 55 60 64 66 64 63 59 46 43 32 28 16 15 23 16 32 15 14 8 11 16 21 35 36 49 30 19 16 20 33 21 42 51 59 24 31
41 43 46 49 51 51 51 50 50 53 57 59 65 70 67 60 55 39 43 48 55 11 15 33 45 37 62 35 35 16 16 9 20 26 16 31 17 40 66 40 31 31 49 41 32 38 34
40 43 45 48 51 53 54 53 54 54 55 59 61 64 65 54 43 21 37 41 50 41 42 66 78 87 84 77 64 64 48 45 27 14 16 17 45 49 30 34 41 48 48 41 28 26 33
40 42 45 47 49 51 53 54 54 55 54 55 58 62 62 47 30 23 36 36 45 54 22 66 57 71 82 61 65 67 54 53 30 26 25 30 26 33 38 41 42 52 53 34 44 27 46
41 43 44 45 46 49 52 53 54 56 56 55 57 62 46 40 25 32 37 47 51 30 9 25 42 24 14 38 43 70 66 57 33 33 26 31 35 42 40 52 40 48 27 44 43 27 42
43 44 45 46 47 49 52 54 54 58 59 57 54 51 35 23 33 32 52 43 30 21 10 27 19 37 56 13 14 6 48 54 38 31 21 46 26 18 38 42 37 44 27 37 31 35 34
43 46 46 47 49 52 54 54 56 59 60 56 50 38 32 27 23 39 40 32 15 2 9 17 9 27 22 14 25 4 14 26 27 28 32 39 37 36 32 33 35 34 34 42 31 24 25
45 45 47 48 50 52 53 55 59 61 60 54 45 29 24 23 21 34 39 22 6 2 5 23 36 38 37 24 12 15 21 15 14 9 20 27 35 40 40 38 35 29 27 15 17 22 34
48 48 49 51 52 51 53 59 62 63 59 52 41 20 19 19 18 28 31 5 5 35 30 34 32 35 24 36 27 33 22 11 13 14 9 6 14 16 19 39 29 25 26 20 31 26 25
50 51 52 54 51 51 57 64 67 65 59 52 38 13 14 6 7 17 16 5 8 24 33 31 30 15 17 38 10 22 11 7 13 8 6 6 15 22 44 34 27 42 37 27 26 41 11
50 52 54 56 53 52 57 66 73 71 61 46 48 22 9 12 27 12 4 8 8 32 35 47 22 8 16 31 21 22 17 7 8 12 13 2 18 17 33 29 29 27 21 11 23 36 31
50 52 54 56 57 56 58 64 73 75 65 52 24 10 15 11 13 4 4 8 36 57 55 15 40 9 13 9 9 13 13 32 22 1 6 6 12 23 16 8 18 17 34 26 12 23 23
50 52 55 56 59 61 60 60 69 73 69 55 19 7 6 17 5 1 4 32 45 43 43 26 24 18 12 21 27 16 9 7 9 23 9 7 4 12 26 35 33 32 38 32 19 15 20
50 51 53 56 59 62 63 56 64 65 60 56 32 14 7 15 2 4 20 29 42 37 21 12 12 13 16 6 12 20 21 17 26 32 2 3 3 10 12 14 17 14 15 18 18 28 34
51 52 54 56 59 61 62 54 59 61 49 43 14 6 18 26 19 7 23 21 31 42 29 38 25 18 4 11 22 15 15 8 22 27 25 10 7 15 13 29 10 19 37 32 18 21 28
50 52 54 56 59 62 59 57 54 58 47 29 8 9 22 10 20 25 21 27 31 26 32 38 10 25 30 26 28 23 30 31 31 3 5 6 10 15 30 39 25 28 39 38 28 34 19
50 53 55 56 57 57 58 57 56 53 52 20 15 15 17 30 32 24 19 11 24 34 28 27 26 40 25 27 26 36 28 21 17 19 9 12 8 22 31 34 25 24 41 38 37 45 32
49 52 53 57 56 54 54 59 55 50 47 18 23 19 19 18 17 15 8 29 33 32 19 49 41 34 31 34 39 47 49 48 32 28 31 16 10 10 12 10 16 14 35 34 28 37 38
52 53 55 56 57 53 52 54 58 44 35 30 29 33 13 10 13 21 41 37 35 35 32 41 44 21 26 52 62 57 55 44 37 36 35 28 21 4 9 2 9 7 15 30 31 45 40
55 56 55 55 53 54 53 52 53 43 37 43 25 21 11 8 25 31 35 36 45 43 30 41 39 55 59 42 15 15 8 4 19 36 34 33 17 4 6 7 17 16 8 18 21 6 32
53 52 53 53 54 53 53 51 49 44 47 45 35 18 29 13 12 39 37 34 18 16 15 28 55 56 29 7 7 8 8 5 6 11 9 25 17 9 6 3 7 6 35 59 46 9 31
56 54 55 55 54 56 53 50 46 45 48 35 41 10 24 18 44 30 21 24 15 8 7 22 31 20 28 9 4 4 7 19 10 13 12 4 6 9 10 7 7 14 44 78 6 6 25
58 59 58 60 54 55 52 48 46 46 48 43 49 18 32 24 58 65 46 38 39 14 4 20 24 14 10 12 7 7 6 7 8 5 11 5 8 5 6 3 8 44 50 10 14 36 15
59 58 61 67 57 55 52 48 46 45 49 44 46 9 19 33 50 74 69 48 44 46 28 6 10 11 10 5 6 6 5 7 11 8 13 5 6 4 9 8 19 34 43 61 51 30 51
Wind_Direction_500mb
32 31 26 22 19 14 11 12 11 9 7 3 359 355 352 348 343 340 335 331 327 322 317 314 309 307 304 260 243 224 314 328 331 223 214 218 228 238 238 242 230 236 245 246 248 246 252
30 25 21 16 14 10 9 11 10 8 6 3 359 355 352 348 344 340 334 327 321 316 312 309 306 299 292 259 277 230 252 273 265 238 222 220 227 234 281 244 249 255 257 259 252 251 257
29 27 22 17 14 12 9 10 10 9 6 3 358 352 347 343 339 335 328 322 316 309 304 305 303 292 271 261 285 245 233 221 210 219 235 240 242 223 207 260 260 259 260 264 260 262 255
30 25 21 19 18 15 13 10 8 4 1 357 353 348 344 342 336 332 326 322 316 303 290 300 304 281 259 315 293 254 230 243 232 221 236 239 244 266 261 268 270 255 265 257 248 255 255
26 23 23 22 20 18 17 13 6 2 359 355 351 347 344 341 338 333 328 326 324 302 279 293 289 267 263 327 258 299 245 246 239 250 258 252 261 268 281 251 261 235 239 248 254 236 254
23 21 20 20 18 16 13 8 2 357 354 352 350 346 345 342 340 336 338 342 357 301 310 295 290 250 269 257 246 250 257 208 237 237 250 225 233 229 236 225 220 216 228 238 246 237 237
21 20 18 15 12 9 6 2 357 356 355 351 349 345 340 339 338 341 349 352 1 360 342 289 272 241 273 270 299 249 230 250 276 205 221 248 213 220 220 219 232 251 236 248 249 241 260
14 12 11 11 7 3 359 356 355 354 353 351 343 337 335 338 338 348 350 340 329 318 296 280 259 259 257 265 282 277 271 289 266 229 225 234 231 230 237 229 231 246 261 265 276 248 247
7 5 5 7 4 359 354 352 352 349 349 347 341 338 334 341 333 352 348 331 328 345 300 292 271 256 252 246 250 257 253 252 248 254 238 232 244 222 236 234 233 231 241 252 258 283 282
0 359 359 0 0 355 350 349 349 346 346 347 344 341 342 349 16 6 350 342 332 338 305 323 348 32 328 227 255 243 240 231 231 234 247 259 254 241 246 228 230 240 236 238 254 254 254
354 353 353 353 353 352 348 347 347 344 345 346 346 347 354 357 345 356 326 321 327 342 299 347 356 313 352 340 316 305 211 220 224 226 211 241 279 256 242 250 234 250 238 245 247 242 262
351 348 347 348 349 348 347 346 348 345 345 344 345 343 347 13 346 341 339 347 348 65 284 311 322 333 318 15 323 259 337 247 226 213 239 253 247 260 264 274 246 263 241 248 258 261 263
355 353 348 348 349 348 348 347 347 344 345 340 342 331 330 347 334 343 338 360 17 203 253 351 353 342 317 304 265 287 281 174 277 283 248 248 246 244 253 268 275 261 232 249 243 232 237
357 355 353 351 351 352 351 347 348 345 346 339 341 327 332 319 9 307 348 13 358 353 354 347 349 353 337 36 347 353 328 291 94 254 249 272 295 261 256 235 254 257 235 218 214 224 247
360 357 354 353 353 353 352 351 349 346 349 339 343 332 322 314 358 343 15 342 305 7 318 335 350 354 342 350 24 346 322 340 317 102 124 354 263 307 306 299 240 251 251 248 257 278 241
2 359 357 355 352 350 352 353 351 348 351 345 331 334 327 252 332 352 14 272 295 309 331 333 333 67 310 352 2 357 321 190 272 137 174 20 287 260 284 293 276 236 264 242 222 236 250
360 359 360 358 355 348 346 350 352 348 351 348 350 291 205 302 340 23 309 271 304 331 352 305 309 327 316 1 306 298 231 300 356 272 150 333 231 277 294 252 262 269 239 239 278 219 228
356 358 358 359 359 356 349 346 353 350 349 357 9 314 181 346 282 294 264 310 322 326 329 314 344 341 6 336 301 291 303 258 126 266 297 71 242 279 264 281 274 290 257 232 231 253 233
351 353 355 355 356 356 355 352 355 354 349 349 342 286 310 354 325 305 309 314 315 332 353 12 288 34 50 10 306 330 330 19 16 308 43 50 336 305 299 240 245 262 297 257 238 233 219
350 351 352 354 355 354 356 356 358 358 349 343 327 315 325 321 6 309 311 319 320 330 321 348 343 338 18 281 304 305 248 239 228 250 275 106 255 230 268 286 308 297 318 322 340 240 235
349 351 349 349 350 354 353 354 352 1 355 347 313 343 8 327 328 315 308 301 319 319 329 336 333 336 325 316 308 302 323 319 322 162 169 145 252 244 272 276 258 269 285 295 310 288 248
339 343 345 349 350 350 353 352 352 353 7 4 327 349 326 298 310 325 310 306 329 323 333 311 331 312 318 310 300 305 304 303 288 299 154 173 263 294 284 267 231 243 271 285 285 282 283
336 337 339 342 345 348 349 351 349 350 359 2 317 314 315 275 309 329 298 322 317 324 318 323 308 312 312 299 291 295 286 273 256 268 276 233 245 308 293 124 108 236 243 254 264 266 264
334 333 333 337 340 344 344 347 349 350 348 340 330 312 288 284 322 313 314 316 324 317 307 305 309 324 277 302 307 291 277 258 237 238 236 249 255 238 271 193 210 267 295 310 279 260 276
327 329 330 330 334 338 341 342 347 347 346 335 336 292 284 275 301 302 326 321 324 322 322 317 345 325 322 315 307 319 329 244 224 217 219 220 222 262 282 299 311 316 30 355 339 306 347
322 326 326 326 327 330 334 337 341 340 340 334 339 253 277 284 249 316 315 302 315 323 322 315 325 329 329 304 307 315 338 321 334 350 241 211 197 155 288 196 284 279 330 329 327 65 346
323 322 324 324 320 320 325 331 333 335 337 329 323 256 277 262 279 278 303 297 293 291 279 300 337 323 355 342 316 293 330 358 347 346 338 168 160 199 241 286 297 342 324 312 175 157 327
321 319 321 321 321 319 319 323 329 331 330 331 318 297 254 268 282 283 286 286 304 270 278 313 327 6 332 9 326 343 332 333 316 335 347 15 306 345 295 116 292 7 333 6 332 314 11
313 315 314 317 313 314 315 317 321 328 329 328 307 290 263 268 268 288 291 284 270 256 264 276 281 291 351 333 338 315 315 329 311 344 350 39 39 324 2 360 336 3 319 353 333 272 34
Wind_Speed_850mb
35 35 35 37 38 39 38 39 41 41 40 40 40 40 41 41 41 42 42 43 44 42 40 38 39 41 37 22 55 17 28 23 20 32 53 47 48 39 17 19 47 46 36 55 64 70 76
37 38 38 39 41 41 41 38 38 38 38 39 41 43 45 46 47 47 47 47 45 42 42 43 39 38 33 29 26 27 27 41 26 16 47 50 34 45 25 35 39 31 42 56 58 66 68
35 38 41 41 39 38 36 35 36 37 38 38 39 40 42 43 44 44 45 45 44 43 46 42 38 37 39 60 44 34 38 33 36 38 40 43 39 47 17 24 58 52 43 43 54 49 50
39 41 42 42 41 41 40 37 37 39 41 44 47 51 55 54 53 50 50 48 40 31 36 36 37 23 26 43 20 26 39 43 36 41 43 43 37 34 31 33 42 36 36 44 40 41 58
39 43 47 48 47 45 43 39 39 41 45 51 54 58 60 60 57 58 60 51 35 25 34 33 34 17 25 17 28 16 33 38 38 39 39 39 34 37 29 9 13 27 44 49 47 45 35
41 45 47 49 48 47 45 44 46 48 51 55 60 64 66 64 63 59 46 43 32 28 16 15 23 16 32 15 14 8 11 16 21 35 36 49 30 19 16 20 33 21 42 51 59 24 31
41 43 46 49 51 51 51 50 50 53 57 59 65 70 67 60 55 39 43 48 55 11 15 33 45 37 62 35 35 16 16 9 20 26 16 31 17 40 66 40 31 31 49 41 32 38 34
40 43 45 48 51 53 54 53 54 54 55 59 61 64 65 54 43 21 37 41 50 41 42 66 78 87 84 77 64 64 48 45 27 14 16 17 45 49 30 34 41 48 48 41 28 26 33
40 42 45 47 49 51 53 54 54 55 54 55 58 62 62 47 30 23 36 36 45 54 22 66 57 71 82 61 65 67 54 53 30 26 25 30 26 33 38 41 42 52 53 34 44 27 46
41 43 44 45 46 49 52 53 54 56 56 55 57 62 46 40 25 32 37 47 51 30 9 25 42 24 14 38 43 70 66 57 33 33 26 31 35 42 40 52 40 48 27 44 43 27 42
43 44 45 46 47 49 52 54 54 58 59 57 54 51 35 23 33 32 52 43 30 21 10 27 19 37 56 13 14 6 48 54 38 31 21 46 26 18 38 42 37 44 27 37 31 35 34
43 46 46 47 49 52 54 54 56 59 60 56 50 38 32 27 23 39 40 32 15 2 9 17 9 27 22 14 25 4 14 26 27 28 32 39 37 36 32 33 35 34 34 42 31 24 25
45 45 47 48 50 52 53 55 59 61 60 54 45 29 24 23 21 34 39 22 6 2 5 23 36 38 37 24 12 15 21 15 14 9 20 27 35 40 40 38 35 29 27 15 17 22 34
48 48 49 51 52 51 53 59 62 63 59 52 41 20 19 19 18 28 31 5 5 35 30 34 32 35 24 36 27 33 22 11 13 14 9 6 14 16 19 39 29 25 26 20 31 26 25
50 51 52 54 51 51 57 64 67 65 59 52 38 13 14 6 7 17 16 5 8 24 33 31 30 15 17 38 10 22 11 7 13 8 6 6 15 22 44 34 27 42 37 27 26 41 11
50 52 54 56 53 52 57 66 73 71 61 46 48 22 9 12 27 12 4 8 8 32 35 47 22 8 16 31 21 22 17 7 8 12 13 2 18 17 33 29 29 27 21 11 23 36 31
50 52 54 56 57 56 58 64 73 75 65 52 24 10 15 11 13 4 4 8 36 57 55 15 40 9 13 9 9 13 13 32 22 1 6 6 12 23 16 8 18 17 34 26 12 23 23
50 52 55 56 59 61 60 60 69 73 69 55 19 7 6 17 5 1 4 32 45 43 43 26 24 18 12 21 27 16 9 7 9 23 9 7 4 12 26 35 33 32 38 32 19 15 20
50 51 53 56 59 62 63 56 64 65 60 56 32 14 7 15 2 4 20 29 42 37 21 12 12 13 16 6 12 20 21 17 26 32 2 3 3 10 12 14 17 14 15 18 18 28 34
51 52 54 56 59 61 62 54 59 61 49 43 14 6 18 26 19 7 23 21 31 42 29 38 25 18 4 11 22 15 15 8 22 27 25 10 7 15 13 29 10 19 37 32 18 21 28
50 52 54 56 59 62 59 57 54 58 47 29 8 9 22 10 20 25 21 27 31 26 32 38 10 25 30 26 28 23 30 31 31 3 5 6 10 15 30 39 25 28 39 38 28 34 19
50 53 55 56 57 57 58 57 56 53 52 20 15 15 17 30 32 24 19 11 24 34 28 27 26 40 25 27 26 36 28 21 17 19 9 12 8 22 31 34 25 24 41 38 37 45 32
49 52 53 57 56 54 54 59 55 50 47 18 23 19 19 18 17 15 8 29 33 32 19 49 41 34 31 34 39 47 49 48 32 28 31 16 10 10 12 10 16 14 35 34 28 37 38
52 53 55 56 57 53 52 54 58 44 35 30 29 33 13 10 13 21 41 37 35 35 32 41 44 21 26 52 62 57 55 44 37 36 35 28 21 4 9 2 9 7 15 30 31 45 40
55 56 55 55 53 54 53 52 53 43 37 43 25 21 11 8 25 31 35 36 45 43 30 41 39 55 59 42 15 15 8 4 19 36 34 33 17 4 6 7 17 16 8 18 21 6 32
53 52 53 53 54 53 53 51 49 44 47 45 35 18 29 13 12 39 37 34 18 16 15 28 55 56 29 7 7 8 8 5 6 11 9 25 17 9 6 3 7 6 35 59 46 9 31
56 54 55 55 54 56 53 50 46 45 48 35 41 10 24 18 44 30 21 24 15 8 7 22 31 20 28 9 4 4 7 19 10 13 12 4 6 9 10 7 7 14 44 78 6 6 25
58 59 58 60 54 55 52 48 46 46 48 43 49 18 32 24 58 65 46 38 39 14 4 20 24 14 10 12 7 7 6 7 8 5 11 5 8 5 6 3 8 44 50 10 14 36 15
59 58 61 67 57 55 52 48 46 45 49 44 46 9 19 33 50 74 69 48 44 46 28 6 10 11 10 5 6 6 5 7 11 8 13 5 6 4 9 8 19 34 43 61 51 30 51
Wind_Direction_850mb
32 31 26 22 19 14 11 12 11 9 7 3 359 355 352 348 343 340 335 331 327 322 317 314 309 307 304 260 243 224 314 328 331 223 214 218 228 238 238 242 230 236 245 246 248 246 252
30 25 21 16 14 10 9 11 10 8 6 3 359 355 352 348 344 340 334 327 321 316 312 309 306 299 292 259 277 230 252 273 265 238 222 220 227 234 281 244 249 255 257 259 252 251 257
29 27 22 17 14 12 9 10 10 9 6 3 358 352 347 343 339 335 328 322 316 309 304 305 303 292 271 261 285 245 233 221 210 219 235 240 242 223 207 260 260 259 260 264 260 262 255
30 25 21 19 18 15 13 10 8 4 1 357 353 348 344 342 336 332 326 322 316 303 290 300 304 281 259 315 293 254 230 243 232 221 236 239 244 266 261 268 270 255 265 257 248 255 255
26 23 23 22 20 18 17 13 6 2 359 355 351 347 344 341 338 333 328 326 324 302 279 293 289 267 263 327 258 299 245 246 239 250 258 252 261 268 281 251 261 235 239 248 254 236 254
23 21 20 20 18 16 13 8 2 357 354 352 350 346 345 342 340 336 338 342 357 301 310 295 290 250 269 257 246 250 257 208 237 237 250 225 233 229 236 225 220 216 228 238 246 237 237
21 20 18 15 12 9 6 2 357 356 355 351 349 345 340 339 338 341 349 352 1 360 342 289 272 241 273 270 299 249 230 250 276 205 221 248 213 220 220 219 232 251 236 248 249 241 260
14 12 11 11 7 3 359 356 355 354 353 351 343 337 335 338 338 348 350 340 329 318 296 280 259 259 257 265 282 277 271 289 266 229 225 234 231 230 237 229 231 246 261 265 276 248 247
7 5 5 7 4 359 354 352 352 349 349 347 341 338 334 341 333 352 348 331 328 345 300 292 271 256 252 246 250 257 253 252 248 254 238 232 244 222 236 234 233 231 241 252 258 283 282
0 359 359 0 0 355 350 349 349 346 346 347 344 341 342 349 16 6 350 342 332 338 305 323 348 32 328 227 255 243 240 231 231 234 247 259 254 241 246 228 230 240 236 238 254 254 254
354 353 353 353 353 352 348 347 347 344 345 346 346 347 354 357 345 356 326 321 327 342 299 347 356 313 352 340 316 305 211 220 224 226 211 241 279 256 242 250 234 250 238 245 247 242 262
351 348 347 348 349 348 347 346 348 345 345 344 345 343 347 13 346 341 339 347 348 65 284 311 322 333 318 15 323 259 337 247 226 213 239 253 247 260 264 274 246 263 241 248 258 261 263
355 353 348 348 349 348 348 347 347 344 345 340 342 331 330 347 334 343 338 360 17 203 253 351 353 342 317 304 265 287 281 174 277 283 248 248 246 244 253 268 275 261 232 249 243 232 237
357 355 353 351 351 352 351 347 348 345 346 339 341 327 332 319 9 307 348 13 358 353 354 347 349 353 337 36 347 353 328 291 94 254 249 272 295 261 256 235 254 257 235 218 214 224 247
360 357 354 353 353 353 352 351 349 346 349 339 343 332 322 314 358 343 15 342 305 7 318 335 350 354 342 350 24 346 322 340 317 102 124 354 263 307 306 299 240 251 251 248 257 278 241
2 359 357 355 352 350 352 353 351 348 351 345 331 334 327 252 332 352 14 272 295 309 331 333 333 67 310 352 2 357 321 190 272 137 174 20 287 260 284 293 276 236 264 242 222 236 250
360 359 360 358 355 348 346 350 352 348 351 348 350 291 205 302 340 23 309 271 304 331 352 305 309 327 316 1 306 298 231 300 356 272 150 333 231 277 294 252 262 269 239 239 278 219 228
356 358 358 359 359 356 349 346 353 350 349 357 9 314 181 346 282 294 264 310 322 326 329 314 344 341 6 336 301 291 303 258 126 266 297 71 242 279 264 281 274 290 257 232 231 253 233
351 353 355 355 356 356 355 352 355 354 349 349 342 286 310 354 325 305 309 314 315 332 353 12 288 34 50 10 306 330 330 19 16 308 43 50 336 305 299 240 245 262 297 257 238 233 219
350 351 352 354 355 354 356 356 358 358 349 343 327 315 325 321 6 309 311 319 320 330 321 348 343 338 18 281 304 305 248 239 228 250 275 106 255 230 268 286 308 297 318 322 340 240 235
349 351 349 349 350 354 353 354 352 1 355 347 313 343 8 327 328 315 308 301 319 319 329 336 333 336 325 316 308 302 323 319 322 162 169 145 252 244 272 276 258 269 285 295 310 288 248
339 343 345 349 350 350 353 352 352 353 7 4 327 349 326 298 310 325 310 306 329 323 333 311 331 312 318 310 300 305 304 303 288 299 154 173 263 294 284 267 231 243 271 285 285 282 283
336 337 339 342 345 348 349 351 349 350 359 2 317 314 315 275 309 329 298 322 317 324 318 323 308 312 312 299 291 295 286 273 256 268 276 233 245 308 293 124 108 236 243 254 264 266 264
334 333 333 337 340 344 344 347 349 350 348 340 330 312 288 284 322 313 314 316 324 317 307 305 309 324 277 302 307 291 277 258 237 238 236 249 255 238 271 193 210 267 295 310 279 260 276
327 329 330 330 334 338 341 342 347 347 346 335 336 292 284 275 301 302 326 321 324 322 322 317 345 325 322 315 307 319 329 244 224 217 219 220 222 262 282 299 311 316 30 355 339 306 347
322 326 326 326 327 330 334 337 341 340 340 334 339 253 277 284 249 316 315 302 315 323 322 315 325 329 329 304 307 315 338 321 334 350 241 211 197 155 288 196 284 279 330 329 327 65 346
323 322 324 324 320 320 325 331 333 335 337 329 323 256 277 262 279 278 303 297 293 291 279 300 337 323 355 342 316 293 330 358 347 346 338 168 160 199 241 286 297 342 324 312 175 157 327
321 319 321 321 321 319 319 323 329 331 330 331 318 297 254 268 282 283 286 286 304 270 278 313 327 6 332 9 326 343 332 333 316 335 347 15 306 345 295 116 292 7 333 6 332 314 11
313 315 314 317 313 314 315 317 321 328 329 328 307 290 263 268 268 288 291 284 270 256 264 276 281 291 351 333 338 315 315 329 311 344 350 39 39 324 2 360 336 3 319 353 333 272 34